This is the latest recevied weather packets stored in our database for station/object WX5RP. If no packets are shown the sender has not sent any weather packets the latest 10 day(s).
| Time | Temp. | Humidity | Pressure | Rain* | Wind** | Luminosity | Snow |
|---|---|---|---|---|---|---|---|
| 1777512915 | 17.22° C | 19% | 1018.7 hPa | 0 mm | - | 58 W/m² | - |
| 1777512315 | 17.78° C | 21% | 1018.7 hPa | 0 mm | - | 209 W/m² | - |
| 1777511716 | 17.78° C | 19% | 1018.7 hPa | 0 mm | - | 117 W/m² | - |
| 1777511116 | 18.33° C | 19% | 1019.4 hPa | 0 mm | - | 200 W/m² | - |
| 1777510515 | 17.78° C | 18% | 1019 hPa | 0 mm | - | 268 W/m² | - |
| 1777509916 | 17.78° C | 19% | 1019 hPa | 0 mm | - | 180 W/m² | - |
| 1777509317 | 18.33° C | 19% | 1019.6 hPa | 0 mm | - | 332 W/m² | - |
| 1777508716 | 17.78° C | 22% | 1019.6 hPa | 0 mm | - | 436 W/m² | - |
| 1777508115 | 17.78° C | 20% | 1019.6 hPa | 0 mm | - | 470 W/m² | - |
| 1777507515 | 17.78° C | 20% | 1019.6 hPa | 0 mm | - | 502 W/m² | - |
| 1777506915 | 18.33° C | 18% | 1019.3 hPa | 0 mm | - | 536 W/m² | - |
| 1777506315 | 18.33° C | 19% | 1019.6 hPa | 0 mm | - | 566 W/m² | - |
| 1777505715 | 18.33° C | 18% | 1019.6 hPa | 0 mm | - | 598 W/m² | - |
| 1777505115 | 18.89° C | 20% | 1020 hPa | 0 mm | - | 628 W/m² | - |
| 1777504515 | 17.78° C | 21% | 1020 hPa | 0 mm | - | 653 W/m² | - |
| 1777503915 | 17.78° C | 22% | 1019.5 hPa | 0 mm | - | 681 W/m² | - |
| 1777503317 | 18.33° C | 22% | 1020.1 hPa | 0 mm | - | 709 W/m² | - |
| 1777502718 | 17.78° C | 22% | 1020.1 hPa | 0 mm | - | 735 W/m² | - |
| 1777502117 | 18.33° C | 23% | 1019.9 hPa | 0 mm | - | 761 W/m² | - |
| 1777501517 | 17.78° C | 20% | 1020 hPa | 0 mm | - | 783 W/m² | - |
| 1777500917 | 17.78° C | 22% | 1020 hPa | 0 mm | - | 806 W/m² | - |
| 1777500317 | 17.78° C | 21% | 1020 hPa | 0 mm | - | 826 W/m² | - |
| 1777499717 | 17.22° C | 22% | 1020 hPa | 0 mm | - | 846 W/m² | - |
| 1777499117 | 17.78° C | 21% | 1020.6 hPa | 0 mm | - | 866 W/m² | - |
| 1777498517 | 17.78° C | 21% | 1020.6 hPa | 0 mm | - | 49 W/m² | - |
* Rain latest hour (hover to see other rain measurements)
** Current wind speed in m/s (hover to see current wind gust speed)